Theta_e
319 323 330 332 334 338 340 339 337 336 336 336 339 340 339 333 330 332 337 338 338 338 336 332 329 329 330 331 332 327 321 326 332 337 337 336 333 330 326 324 329 329 321
312 319 327 330 334 335 336 339 337 338 339 337 338 339 339 331 330 334 336 337 336 331 329 327 326 328 329 331 333 328 322 328 333 337 337 333 332 327 322 324 324 323 324
311 318 324 331 333 333 335 335 338 338 339 339 339 340 339 333 332 334 336 335 332 324 326 326 329 329 329 332 332 326 321 327 335 337 335 335 330 323 320 321 320 319 327
307 315 322 329 333 332 334 335 337 337 338 339 339 339 338 337 337 335 335 334 333 326 327 329 330 330 330 331 327 319 320 331 334 335 335 333 330 323 321 320 319 327 327
305 310 319 325 330 331 331 335 335 336 336 337 338 338 337 338 338 337 335 335 335 331 330 333 332 329 328 326 322 318 329 333 333 337 336 332 331 326 321 320 323 328 326
302 307 312 322 325 329 330 331 333 334 335 335 336 337 337 337 337 337 337 335 335 336 337 335 332 328 327 324 318 325 331 333 335 335 333 330 334 326 320 326 327 326 325
300 302 305 312 320 326 329 329 329 331 333 333 333 334 335 336 336 336 335 335 335 336 335 335 329 327 326 319 322 330 334 334 334 335 333 331 330 322 320 325 326 325 324
298 299 300 305 315 316 326 328 329 328 329 331 333 333 333 334 334 336 335 333 333 334 335 335 334 325 324 320 328 333 334 332 332 331 331 331 327 323 320 326 325 324 322
298 297 298 299 302 311 316 323 327 328 328 328 327 331 333 334 335 336 334 334 335 335 336 335 333 330 321 326 329 332 330 330 330 330 330 329 327 324 323 326 325 321 321
299 298 297 297 297 301 309 313 322 327 328 328 328 327 330 333 334 336 334 334 335 335 334 331 329 330 325 330 330 329 327 327 330 329 330 330 325 321 325 325 324 323 322
298 298 298 297 297 297 300 305 310 320 327 328 329 328 328 329 331 334 334 335 333 332 333 334 333 329 326 329 330 328 328 330 330 330 330 327 326 320 323 324 324 322 321
297 297 297 297 296 296 299 299 303 307 319 325 327 328 329 328 330 331 333 334 332 333 330 330 331 325 329 331 332 331 332 332 331 331 330 327 326 320 322 323 323 321 320
296 296 296 297 297 297 298 299 301 302 306 317 322 327 329 327 329 329 331 333 331 332 328 323 323 326 328 332 334 332 333 332 332 331 328 327 327 322 325 320 322 320 321
296 295 296 296 296 296 297 298 300 302 300 308 313 321 326 329 327 326 329 333 332 329 332 330 331 332 328 332 331 330 331 331 331 330 326 326 326 324 324 322 321 320 323
295 295 295 295 295 295 296 297 298 300 300 301 308 311 319 322 327 328 330 331 333 331 329 331 331 325 327 330 328 328 331 332 330 330 328 326 325 324 321 322 318 319 322
295 294 294 294 295 295 295 296 297 299 299 298 302 309 313 318 323 327 329 330 332 332 330 330 330 322 325 326 329 327 329 332 331 331 330 326 325 324 320 322 323 322 321
295 294 294 294 294 294 295 295 297 298 299 300 299 305 308 314 319 324 326 329 330 331 330 329 328 321 324 326 325 328 330 330 331 331 330 328 325 324 322 322 319 323 322
294 294 294 294 294 294 295 295 295 297 298 299 300 299 306 308 314 319 322 326 329 330 330 326 326 324 323 323 321 320 330 330 330 331 331 329 326 324 322 320 321 319 321
294 294 294 294 294 294 294 294 294 295 297 298 299 298 300 307 310 314 320 323 326 329 329 327 328 324 321 323 325 319 328 329 331 331 332 330 328 327 324 319 321 323 319
294 294 294 293 294 294 294 293 294 294 296 297 298 299 297 302 307 310 315 319 322 326 329 331 328 328 327 320 323 322 327 328 331 331 331 330 330 327 325 322 323 323 320
294 294 294 293 293 293 293 293 293 293 295 296 297 298 297 297 304 308 313 316 319 325 329 329 331 330 330 330 327 327 328 329 329 330 331 330 329 327 325 324 322 322 320
295 294 294 293 293 293 292 293 293 293 294 295 296 297 298 296 298 305 310 314 316 321 326 330 330 332 331 329 329 328 327 327 327 327 329 329 328 328 326 324 321 321 321
294 294 293 293 293 292 292 292 292 292 293 294 296 297 297 296 296 301 308 311 314 317 322 327 329 329 331 330 329 328 326 326 326 326 328 328 328 328 326 326 324 321 320
294 293 293 293 292 292 292 292 292 292 292 293 295 296 297 297 296 297 305 307 313 314 317 324 327 330 328 328 330 330 327 324 325 325 326 328 328 327 326 326 325 324 321
293 293 293 292 292 292 292 292 292 292 292 293 295 296 297 298 297 297 302 306 310 311 316 319 325 328 329 329 330 329 327 325 325 325 326 326 325 328 327 326 326 325 323
293 293 292 292 292 292 292 292 291 292 292 293 294 296 296 297 298 297 300 304 308 312 315 318 321 326 328 329 328 329 326 325 325 323 326 328 328 328 328 327 326 326 325
Wind_Speed
32 25 19 23 22 15 12 8 3 0 2 4 6 5 5 8 12 12 12 13 13 14 14 14 17 17 15 12 11 11 11 13 17 20 21 17 15 14 12 12 14 12 10
32 26 16 16 15 15 10 7 3 1 1 3 6 6 5 9 11 11 12 13 11 13 16 18 18 15 13 10 11 11 11 14 18 20 17 15 13 10 9 9 10 10 14
31 27 19 10 13 13 10 7 3 2 2 5 5 5 5 10 12 11 13 13 12 15 19 19 16 12 10 12 13 11 12 15 19 19 16 15 12 7 6 6 7 11 18
30 29 23 10 9 12 7 4 3 3 3 4 7 5 6 8 10 12 13 11 14 17 17 15 14 12 13 14 12 11 12 16 16 14 13 13 11 6 7 6 10 18 16
27 29 24 19 10 8 10 6 1 3 2 4 7 7 7 7 9 14 17 15 15 20 17 13 13 13 14 13 12 12 15 17 16 15 13 11 10 7 8 9 17 15 14
25 26 26 19 18 9 8 8 7 1 2 2 3 7 9 9 9 10 7 11 11 15 17 12 10 13 14 13 13 14 16 15 16 11 10 8 11 6 8 13 14 14 13
24 23 23 22 19 13 9 8 7 5 2 2 4 5 7 9 8 9 10 10 10 13 17 10 15 13 14 14 15 16 15 15 11 9 8 9 7 7 9 15 13 14 12
23 23 24 21 19 19 12 10 10 9 5 3 4 5 6 7 10 9 9 10 10 10 12 11 17 19 15 17 17 17 17 17 11 7 5 9 7 7 11 14 12 11 12
24 26 25 24 21 17 16 12 11 12 11 10 7 4 9 10 12 14 15 12 13 16 14 14 18 15 19 19 19 18 17 17 9 8 7 7 7 7 15 14 11 11 13
24 27 28 27 24 20 15 14 12 10 11 13 12 10 7 8 17 14 14 14 12 14 11 13 17 17 20 21 21 20 17 14 9 8 8 10 4 6 15 14 12 12 15
23 26 27 28 28 24 21 16 13 11 12 13 10 11 13 9 9 15 12 7 8 12 13 18 19 20 25 24 23 21 16 10 9 7 8 6 3 2 17 16 14 13 15
26 27 27 27 27 27 23 20 16 15 12 13 11 13 12 12 12 11 14 10 10 11 11 14 19 22 23 27 23 20 14 12 9 8 7 5 2 6 13 19 15 14 15
21 24 26 27 27 26 24 23 19 20 13 12 12 9 12 12 14 15 12 11 14 15 13 17 20 22 25 27 24 20 15 15 9 7 5 3 3 6 13 11 17 12 18
20 21 24 25 27 27 23 22 21 18 19 14 12 11 7 9 14 16 18 15 20 21 17 18 20 18 25 24 23 18 15 14 9 7 7 3 2 5 15 15 16 17 17
18 21 23 24 26 26 25 24 21 20 19 17 13 12 10 8 9 10 18 16 22 25 24 22 22 25 26 25 21 17 15 14 11 9 9 5 2 6 16 15 12 19 17
16 19 21 24 26 26 24 24 21 20 20 18 14 12 13 9 7 10 12 17 21 25 27 24 24 27 25 27 20 18 17 14 13 10 11 8 4 7 10 15 15 15 17
14 18 20 23 26 27 25 23 20 20 19 18 17 13 14 11 9 7 10 15 21 21 30 27 28 28 25 26 26 19 17 14 14 11 8 9 8 8 13 17 17 17 16
14 17 19 22 25 27 25 22 20 19 18 17 18 15 13 14 11 9 9 13 19 23 36 32 29 31 29 26 28 26 19 15 14 14 11 10 9 8 15 17 18 19 19
13 15 18 20 23 26 25 22 20 19 17 17 16 18 15 14 12 13 10 12 16 23 13 40 33 38 34 31 26 26 22 19 16 14 14 13 11 10 9 17 21 19 15
12 13 15 18 22 24 23 22 20 18 17 16 16 18 19 14 13 13 11 13 15 15 21 12 45 41 39 38 36 29 23 21 18 17 16 15 13 12 11 13 18 20 16
13 13 15 18 20 23 23 23 21 20 18 16 16 17 20 17 13 12 12 14 14 11 15 21 18 37 38 41 40 31 33 22 21 19 18 16 15 13 13 13 14 15 18
16 13 15 18 20 21 21 20 20 19 17 15 16 16 17 20 16 12 12 12 15 10 14 19 23 21 32 40 38 38 24 26 23 23 21 18 18 14 14 14 15 16 15
17 14 15 18 18 20 19 18 19 18 16 15 16 16 18 19 17 12 11 9 15 9 10 20 16 23 19 35 38 28 19 14 22 25 27 20 21 17 15 16 16 15 17
16 14 13 17 18 18 17 17 18 19 19 18 17 17 17 17 17 14 9 8 12 12 8 14 22 21 25 35 41 39 37 27 28 16 25 27 20 20 18 16 16 17 16
15 13 16 15 17 16 16 15 17 18 18 17 16 16 16 15 17 14 9 8 8 13 9 10 15 23 23 28 35 44 40 33 35 23 23 24 23 21 20 19 17 17 18
14 14 13 15 15 15 15 15 16 18 18 16 16 15 15 14 14 16 12 8 9 10 12 10 10 20 20 22 24 40 42 39 39 36 24 25 26 24 21 20 20 18 17
Wind_Direction
354 357 9 21 19 18 22 11 29 44 250 231 213 216 197 175 174 175 169 166 163 162 166 158 150 149 143 134 133 126 121 120 125 130 132 126 121 116 107 98 92 108 110
347 356 4 13 14 10 7 15 35 327 35 187 204 209 191 168 171 173 169 169 169 171 164 154 151 154 155 149 144 133 132 134 133 136 134 123 118 110 105 117 133 106 107
355 355 357 9 6 355 349 343 87 101 75 131 164 195 192 175 181 178 176 171 169 167 159 156 155 158 155 153 147 144 142 142 140 139 128 109 113 103 100 112 105 108 121
3 1 3 7 14 8 348 337 73 121 148 127 153 184 188 186 195 185 184 186 171 168 168 165 160 158 152 150 151 148 145 144 142 132 113 111 115 103 101 102 101 112 130
9 8 3 5 18 14 14 11 84 101 106 184 180 180 195 200 207 218 198 178 177 178 167 174 164 158 156 156 154 148 146 146 125 115 119 124 114 111 99 100 119 130 133
15 13 9 358 360 1 7 15 12 62 154 176 226 209 199 192 215 226 202 185 196 191 164 157 164 165 163 161 157 150 144 135 112 130 125 119 134 121 100 121 133 149 145
16 20 15 11 360 353 336 344 351 12 4 207 190 210 217 208 190 219 211 206 209 201 202 205 196 185 168 165 158 150 142 129 131 126 131 141 167 134 123 132 146 149 147
16 16 18 20 8 356 337 325 326 315 305 332 244 219 231 213 190 186 213 210 226 224 222 245 203 188 183 169 160 155 147 138 135 140 138 139 148 140 138 144 155 160 165
10 9 14 15 20 3 355 330 316 310 300 288 293 276 227 232 206 196 196 231 250 257 255 213 202 211 181 168 162 159 151 136 147 147 150 138 133 144 140 160 165 157 155
9 7 5 8 11 15 0 347 328 319 306 292 288 294 265 230 234 223 224 240 253 246 235 215 198 189 178 169 165 158 151 130 149 138 166 168 134 150 149 165 170 164 164
9 9 4 3 3 6 4 2 351 319 303 293 286 278 279 274 259 240 236 239 235 220 216 222 212 198 182 174 169 162 155 148 156 154 182 168 124 173 163 170 177 174 170
4 5 6 2 1 2 2 357 358 346 319 305 309 282 286 281 264 261 242 239 213 216 214 197 194 192 187 174 177 168 162 166 160 164 186 165 134 144 170 176 176 183 185
2 4 5 3 2 1 1 359 354 353 342 315 317 305 269 275 258 261 261 234 198 204 198 184 188 196 191 186 183 179 175 165 171 160 188 144 158 147 178 172 183 176 165
3 4 4 3 2 1 1 358 355 350 349 338 327 311 305 265 254 253 263 231 205 196 194 193 198 197 193 204 176 183 178 171 175 179 207 182 157 173 192 186 193 177 176
2 2 6 2 2 360 358 354 353 349 346 345 328 330 315 319 269 249 249 242 219 208 196 201 205 203 200 204 186 181 187 175 184 185 208 193 203 189 189 191 193 184 182
1 2 3 5 1 357 355 352 351 346 346 338 335 323 321 331 299 261 257 238 237 212 204 202 208 203 200 204 195 184 200 184 184 177 214 194 209 190 180 183 174 178 188
352 356 360 1 0 359 352 350 348 343 346 340 336 317 328 325 315 281 256 237 234 217 207 208 217 209 208 208 208 199 202 196 193 184 188 193 196 191 188 197 189 185 195
337 350 353 357 356 358 353 350 345 340 345 336 334 334 308 329 319 306 285 249 236 235 214 204 205 206 205 209 206 213 209 208 207 191 191 197 205 201 194 197 194 192 199
325 340 347 351 352 356 350 347 343 339 338 337 336 330 330 302 323 319 298 280 254 223 210 208 209 207 209 199 200 206 212 211 217 210 198 189 194 190 195 204 193 193 203
314 325 336 342 346 351 346 344 339 337 334 335 337 334 333 321 306 311 317 296 271 228 228 206 214 209 213 208 215 214 210 214 214 210 199 193 194 191 186 205 201 197 206
302 311 329 335 340 345 342 342 340 337 334 333 334 337 330 333 312 310 307 314 281 252 212 215 213 209 214 217 214 215 213 203 210 212 197 195 197 196 190 195 201 206 218
294 303 321 327 333 337 336 338 336 334 331 329 331 335 337 331 332 305 304 318 296 249 223 214 215 205 216 211 203 200 193 205 209 207 199 196 200 200 195 195 198 202 212
289 294 310 322 326 330 332 334 333 335 334 330 335 333 336 334 334 320 302 315 310 286 224 204 200 216 206 202 214 193 187 203 204 211 207 198 206 200 202 202 201 207 205
284 293 307 316 323 327 329 332 335 337 335 331 333 330 336 335 335 339 292 318 311 313 247 209 197 207 210 224 215 217 213 200 187 193 212 205 201 204 205 208 210 207 210
283 287 309 310 321 323 327 330 332 332 331 329 331 334 335 338 339 342 320 302 307 321 281 243 207 211 216 213 216 213 204 201 199 184 197 201 208 211 212 210 213 211 213
288 292 304 311 318 321 325 327 329 331 330 332 332 337 338 339 337 341 340 320 287 305 314 263 230 214 220 201 221 216 204 201 198 197 202 204 209 211 211 215 218 215 217